This is the latest recevied weather packets stored in our database for station/object K5NWZ. If no packets are shown the sender has not sent any weather packets the latest 10 day(s).
| Time | Temp. | Humidity | Pressure | Rain* | Wind** | Luminosity | Snow |
|---|---|---|---|---|---|---|---|
| 1777358945 | 3.33° C | 87% | 1024.9 hPa | 0 mm | - | 0 W/m² | - |
| 1777358643 | 3.89° C | 87% | 1025.1 hPa | 1.78 mm | - | 0 W/m² | - |
| 1777358340 | 3.89° C | 86% | 1025.1 hPa | 3.05 mm | - | 0 W/m² | - |
| 1777358037 | 4.44° C | 84% | 1024.9 hPa | 1.27 mm | - | 0 W/m² | - |
| 1777357735 | 4.44° C | 82% | 1024.8 hPa | 0 mm | - | 0 W/m² | - |
| 1777357431 | 4.44° C | 82% | 1024.7 hPa | 0 mm | - | 0 W/m² | - |
| 1777357128 | 4.44° C | 81% | 1024.6 hPa | 0 mm | - | 0 W/m² | - |
| 1777356825 | 5° C | 78% | 1024.4 hPa | 0 mm | - | 0 W/m² | - |
| 1777356523 | 5° C | 78% | 1024.2 hPa | 0 mm | - | 0 W/m² | - |
| 1777356219 | 5° C | 77% | 1024.2 hPa | 0 mm | - | 0 W/m² | - |
| 1777355916 | 5° C | 79% | 1024.1 hPa | 0 mm | - | 0 W/m² | - |
| 1777355613 | 5° C | 77% | 1024.4 hPa | 0 mm | - | 0 W/m² | - |
| 1777355311 | 5° C | 81% | 1024.2 hPa | 0 mm | - | 0 W/m² | - |
| 1777355006 | 5° C | 91% | 1024.2 hPa | 0 mm | - | 0 W/m² | - |
| 1777354702 | 5° C | 92% | 1024.4 hPa | 0 mm | - | 0 W/m² | - |
| 1777354397 | 5° C | 92% | 1024.1 hPa | 0 mm | - | 0 W/m² | - |
| 1777354095 | 5° C | 92% | 1024.2 hPa | 0 mm | - | 0 W/m² | - |
| 1777353791 | 5° C | 92% | 1024.1 hPa | 0 mm | - | 0 W/m² | - |
| 1777353490 | 5° C | 92% | 1024.2 hPa | 0 mm | - | 0 W/m² | - |
| 1777353188 | 5° C | 92% | 1024.2 hPa | 0 mm | - | 0 W/m² | - |
| 1777352885 | 5° C | 92% | 1024.4 hPa | 1.78 mm | - | 0 W/m² | - |
| 1777352583 | 5° C | 92% | 1024.1 hPa | 1.78 mm | - | 0 W/m² | - |
| 1777352281 | 5.56° C | 91% | 1024.2 hPa | 0 mm | - | 0 W/m² | - |
| 1777351977 | 5.56° C | 92% | 1024.2 hPa | 0 mm | - | 0 W/m² | - |
| 1777351675 | 5.56° C | 91% | 1024.1 hPa | 0 mm | - | 0 W/m² | - |
* Rain latest hour (hover to see other rain measurements)
** Current wind speed in m/s (hover to see current wind gust speed)